Tracking 22779 objects as of 14-Apr-2021
HD Live streaming from Space Station
objects crossing your sky now

NEPALISAT1

Track NEPALISAT1 now!
10-day predictions
NEPALISAT1 is classified as:


NORAD ID: 44329
Int'l Code: 1998-067QE
Perigee: 360.1 km
Apogee: 364.7 km
Inclination: 51.6 °
Period: 91.6 minutes
Semi major axis: 6733 km
RCS: Unknown
Launch date: November 20, 1998
Source: Federal Democratic Republic of Nepal (NPL)
Launch site: TYURATAM MISSILE AND SPACE COMPLEX (TTMTR)

Uplink (MHz):
Downlink (MHz): 437.375
Beacon (MHz): 437.375
Mode: 4800bps GMSK CW
Call sign: JG6YLG
Status: Active

aabbcc
Your satellite tracking list
Your tracking list is empty




NASA's NSSDC Master Catalog

Two Line Element Set (TLE):
1 44329U 98067QE  21103.67447351  .00044329  00000-0  34506-3 0  9999
2 44329  51.6346 257.9681 0003367  26.6024 333.5146 15.71267721103958
Source of the keplerian elements: AFSPC